Content
SEND FEEDBACK

Daily
Averages
Monthly
Summary
United States of America

WAHWEAP, ARIZONA


Home > North America > United States > Arizona
Elevation: 3703 feet     Latitude: 36 59N     Longitude: 111 29W

WEATHER
 
SELECT A DAY
Number of Records: 194,870;   Date Range: 1/1/95 - 9/3/14
 
SHARE

PRINT THIS DATA

[ ← Previous Day ]
WEATHER ALMANAC - MAY 9, 2013
[ Next Day → ]
[ °C ]   °F
Weather ElementAverageHighLow
Temperature59.7 °F66.9 °F (11:53 am)52 °F (5:53 am)
Dewpoint39.8 °F44.1 °F (7:53 pm)37 °F (4:53 am)
Humidity48.8 %64 % (11:53 pm)37 % (10:53 am)
Barometer29.96 in30.11 in (10:53 pm)29.91 in (1:53 am)
Wind Speed3.6 mph17.3 mph (11:53 am)
Wind Gust25.3 mph (11:53 am)
Weather ElementAverage
Visibility10 mi
Wind DirectionESE (104.1 °)

Weather ElementTotal
Precipitation---
Heating Degree Days5.6 (Base 65)
Growing Degree Days9.5 (Base 50)
Averaged from 22 records on May 9, 2013
WEATHER CONDITIONS BREAKOUT
WIND DIRECTION BREAKOUT
WEATHER BY HOUR - MAY 9, 2013
[ °C ]   °F
Local TimeTemperatureDewpointHumidityBarometerVisibilityWind DirectionWind SpeedGust SpeedPrecipitationEventsConditions
1:53 AM55.0 °F39.0 °F55 %29.91 in10.0 miCalmOvercast
2:53 AM54.0 °F37.9 °F55 %29.91 in10.0 miCalmScattered Clouds
3:53 AM53.1 °F37.9 °F57 %29.91 in10.0 miCalmClear
4:53 AM53.1 °F37.0 °F55 %29.91 in10.0 miCalmClear
5:53 AM52.0 °F39.0 °F61 %29.92 in10.0 miCalmScattered Clouds
6:53 AM55.9 °F37.9 °F51 %29.93 in10.0 miCalmClear
7:53 AM57.9 °F37.0 °F46 %29.94 in10.0 miNNW (340°)5.8 mphPartly Cloudy
8:53 AM61.0 °F37.0 °F41 %29.95 in10.0 miNorth (350°)5.8 mphPartly Cloudy
9:53 AM62.1 °F37.9 °F41 %29.96 in10.0 miNorth (10°)8.1 mphMostly Cloudy
10:53 AM64.9 °F37.9 °F37 %29.96 in10.0 miCalmMostly Cloudy
11:53 AM66.9 °F43.0 °F42 %29.95 in10.0 miNorth (360°)17.3 mph25.3 mphMostly Cloudy
12:53 PM64.9 °F37.9 °F37 %29.97 in10.0 miNNW (330°)12.7 mphPartly Cloudy
1:53 PM64.9 °F37.9 °F37 %29.96 in10.0 miNW (310°)8.1 mphMostly Cloudy
2:53 PM64.9 °F39.9 °F40 %29.95 in10.0 miNNW (340°)5.8 mphMostly Cloudy
3:53 PM63.0 °F41.0 °F45 %29.96 in10.0 miWSW (240°)6.9 mph0.00 inOvercast
4:53 PM63.0 °F41.0 °F45 %29.95 in10.0 miCalmMostly Cloudy
5:53 PM63.0 °F42.1 °F46 %29.95 in10.0 miNorth (10°)8.1 mphScattered Clouds
6:53 PM63.0 °F42.1 °F46 %29.95 in10.0 miCalmClear
7:53 PM60.1 °F44.1 °F55 %29.97 in10.0 miCalmScattered Clouds
8:53 PM57.9 °F43.0 °F58 %29.98 in10.0 miCalmClear
10:53 PM57.2 °F42.8 °F59 %30.11 in10.0 miCalmClear
11:53 PM55.0 °F43.0 °F64 %30.01 in10.0 miCalmClear
Hourly data recorded from KPGA, located miles away from Wahweap, Arizona







STORIES FROM OUR PARTNERS